THEMIS E

Last updated on Sun Jul 06 2025 00:02:37 GMT+0000 (Coordinated Universal Time)

1 30798U 07004E 25186.01161259 -.00000449 00000+0 00000+0 0 9991 2 30798 0.9272 251.6590 8418456 21.9136 4.9385 0.87837641 62860
UTC large
Height (km)
Speed (km/s)
/
Latitude / Longitude
Inclination (degrees)
Orbital Period (minutes)
Azimuth
Elevation
Range (km)
Doppler Factor

Next 0 passes for location: London (51.5072 / 0.1276)

Sorry there are no passes over London.